Regional Weather Roundup
Issued by NWS

Current Version | Previous Version | Text Only | Print | Product List | Glossary On
Versions: 1 2 3 4 5 6 7 8 9 10 11 12 13 14 15 16 17 18 19 20 21 22 23 24 25 26 27 28 29 30 31 32 33 34 35 36 37 38 39 40 41 42 43 44 45 46 47 48 49 50
475
ASUS42 KKEY 230910
RWRKEY

FLORIDA REGIONAL WEATHER ROUNDUP FOR THE FLORIDA KEYS
NATIONAL WEATHER SERVICE KEY WEST FLORIDA
400 AM EST THU FEB 23 2017

...SOUTH FLORIDA AND THE KEYS...

CITY           SKY/WX    TMP DP  RH WIND       PRES   REMARKS
FORT MYERS     MOCLDY    62  61  96 CALM      29.61F
SW REGIONAL AP CLOUDY    60  57  89 S3        29.61F
NAPLES         MOCLDY    68  61  78 W7        29.62S
MIAMI          MOCLDY    64  60  87 SW3       29.63F
WEST KENDALL   CLOUDY    60  58  92 SW5       29.63F
HOMESTEAD      PTCLDY    59  59  99 SW3       29.63S
MARATHON       CLEAR     70  60  70 W9        29.65S
BOCA CHICA NAS PTCLDY    67  59  75 W8        29.66S
KEY WEST INTL  PTCLDY    70  60  70 W10       29.66S

...INTERNATIONAL WEATHER...

CITY           SKY/WX    TMP DP  RH WIND       PRES   REMARKS
NASSAU BAHAMAS CLOUDY    68  63  83 SW5       29.96R
CANCUN MEXICO  CLEAR     63  59  88 SW6       29.79F
COZUMEL MEXICO PTCLDY    72  63  73 NW14      29.78F

ADJACENT COASTAL WATERS...

STATION/POSITION TIME  SKY/WX   TEMP    WIND        PRES    WAVE
                                AIR SEA DIR/SP/G            HT/PER
                 (UTC)          (F)     (DEG/KT/KT) (MB)    (FT/S)
PULASKI SHOAL LI 0900            71     270/ 10/ 13 1004.1F
SAND KEY         0850            71                 1004.9F
LONG KEY         0800            70 72  310/ 12/ 14 1004.1F
MOLASSES REEF    NOT AVBL
FOWEY ROCKS      0800            68 74  260/ 11/ 13 1003.9F
Buoy 42097       0900                                 N/A     6/ 6

$$




USA.gov is the U.S. government's official web portal to all federal, state and local government web resources and services.